Location: Newark
(50.0306°N, 2.3272°E)
Time: 07:26:54
(UTC+00:00)

Vanguard 2 Rocket - Visible Passes

Search period start: 15 December 2019 00:00
Search period end: 25 December 2019 00:00
Orbit: 554 x 3326 km, 32.9° (Epoch: 14 December)

Date Brightness Start Highest point End Pass type
(mag) Time Alt. Az. Time Alt. Az. Time Alt. Az.
15 Dec 9.6 17:29:38 10° SW 17:43:05 33° S 17:51:46 10° ESE visible
15 Dec 9.2 19:46:44 10° WSW 19:56:15 26° SSW 19:57:34 25° S visible
16 Dec 9.8 16:28:00 10° SW 16:42:44 34° S 16:52:42 10° ESE visible
16 Dec 9.2 18:44:35 10° WSW 18:56:37 31° SSW 19:01:30 21° SSE visible
16 Dec 9.9 21:03:18 10° WSW 21:07:19 15° SW 21:07:19 15° SW visible
17 Dec 9.6 17:42:30 10° WSW 17:56:35 36° S 18:05:27 11° SE visible
17 Dec 9.4 20:00:26 10° WSW 20:09:31 23° SSW 20:11:16 22° SSW visible
18 Dec 9.9 16:40:34 10° WSW 16:56:12 37° S 17:06:40 10° ESE visible
18 Dec 9.4 18:57:58 10° WSW 19:09:57 30° SSW 19:15:15 19° SSE visible
18 Dec 10.1 21:18:54 10° WSW 21:21:05 11° SW 21:21:05 11° SW visible
19 Dec 9.7 17:55:38 10° WSW 18:10:00 36° SSW 18:19:17 10° SE visible
19 Dec 9.7 20:14:32 10° WSW 20:22:35 19° SW 20:25:07 17° SSW visible
20 Dec 9.9 16:53:28 10° WSW 17:09:37 39° S 17:20:26 10° ESE visible
20 Dec 9.6 19:11:36 10° WSW 19:23:07 27° SSW 19:29:11 16° SSE visible
21 Dec 9.8 18:08:59 10° WSW 18:23:15 34° SSW 18:32:44 10° SE visible
21 Dec 10.0 20:29:23 10° WSW 20:35:26 15° SW 20:39:09 12° SSW visible
22 Dec 10.0 17:06:38 10° WSW 17:22:55 39° SSW 17:34:00 10° SE visible
22 Dec 9.9 19:25:33 10° W 19:36:06 22° SW 19:43:21 11° S visible
23 Dec 10.2 16:04:36 10° WSW 16:22:11 42° S 16:34:50 10° ESE visible
23 Dec 10.0 18:22:35 10° W 18:36:20 30° SSW 18:45:49 10° SSE visible
24 Dec 10.1 17:20:01 10° WSW 17:36:06 37° SSW 17:47:20 10° SE visible
24 Dec 10.2 19:40:08 10° WSW 19:48:51 18° SW 19:55:35 10° S visible
